Regional Weather Roundup
Issued by NWS

Home | Current Version | Previous Version | Text Only | Print | Product List | Glossary On
Versions: 1 2 3 4 5 6 7 8 9 10 11 12 13 14 15 16 17 18 19 20 21 22 23 24 25 26 27 28 29 30 31 32 33 34 35 36 37 38 39 40 41 42 43 44 45 46 47 48 49 50
000
ASUS43 KLSX 210607
RWRMO

WEATHER SUMMARY FOR MISSOURI
NATIONAL WEATHER SERVICE SPRINGFIELD MO
1200 AM CST SUN DEC 21 2014

NOTE: "FAIR" INDICATES FEW OR NO CLOUDS BELOW 12,000 FEET WITH NO
       SIGNIFICANT WEATHER AND/OR OBSTRUCTIONS TO VISIBILITY.
       CURRENT SKY AND/OR WEATHER CONDITIONS ARE NOT AVAILABLE FOR
       CHILLICOTHE AND FARMINGTON.

MOZ001>031-035>038-043-044-053-054-210700-
...NORTHERN AND WESTERN MISSOURI...

CITY           SKY/WX    TMP DP  RH WIND       PRES   REMARKS
KANSAS CTY INT PTCLDY    36  33  89 S14       30.10F WCI  27
6HR MIN TEMP:  34; 6HR MAX TEMP:  43;

KANSAS C DTWN  CLEAR     37  33  85 S9        30.13S
6HR MIN TEMP:  37; 6HR MAX TEMP:  45;

LEE`S SUMMIT   PTCLDY    36  32  85 S10       30.13F WCI  28
6HR MIN TEMP:  36; 6HR MAX TEMP:  41;

ST JOSEPH      PTCLDY    35  33  92 S9        30.10F WCI  28
6HR MIN TEMP:  35; 6HR MAX TEMP:  43;

CHILLICOTHE      N/A     39  35  86 S6        30.15S
6HR MIN TEMP:  39; 6HR MAX TEMP:  40;

KIRKSVILLE     CLOUDY    38  35  89 S12       30.16S
6HR MIN TEMP:  37; 6HR MAX TEMP:  39;


$$
MOZ066>068-077>081-088>096-101>105-210700-
...SOUTHWEST MISSOURI...

CITY           SKY/WX    TMP DP  RH WIND       PRES   REMARKS
SPRINGFIELD    CLOUDY    41  37  86 S10       30.17F
6HR MIN TEMP:  41; 6HR MAX TEMP:  42;

JOPLIN         CLOUDY    43  36  76 S7        30.17F
6HR MIN TEMP:  42; 6HR MAX TEMP:  43;


$$
MOZ032>034-039>042-045>050-055>058-069>072-210700-
...CENTRAL MISSOURI...

CITY           SKY/WX    TMP DP  RH WIND       PRES   REMARKS
COLUMBIA       CLOUDY    40  35  83 S8        30.19F
6HR MIN TEMP:  39; 6HR MAX TEMP:  40;

JEFFERSON CITY CLOUDY    42  34  73 S6        30.21F
6HR MIN TEMP:  41; 6HR MAX TEMP:  42;

ROLLA          CLOUDY    39  34  82 S8        30.19S
6HR MIN TEMP:  39; 6HR MAX TEMP:  40;

SEDALIA        CLOUDY    41  35  79 S9        30.17F
6HR MIN TEMP:  40; 6HR MAX TEMP:  41;

WHITEMAN AFB   CLOUDY    40  35  83 S9        30.15F
WARRENSBURG    MOCLDY    36  34  93 S7        30.15F WCI  30
OSAGE BEACH    CLOUDY    43  34  70 S6        30.20S

$$
MOZ051-052-059>065-210700-
...EAST CENTRAL MISSOURI...

CITY           SKY/WX    TMP DP  RH WIND       PRES   REMARKS
ST LOUIS INTL  CLOUDY    42  33  70 S8        30.24S
6HR MIN TEMP:  42; 6HR MAX TEMP:  43;

SPIRIT OF STL  CLOUDY    41  34  76 S3        30.23S
6HR MIN TEMP:  41; 6HR MAX TEMP:  42;

ST CHARLES     CLOUDY    40  35  83 S8        30.24S
6HR MIN TEMP:  38; 6HR MAX TEMP:  40;


$$
MOZ072>076-082>087-097>100-106>115-210700-
...SOUTH CENTRAL AND SOUTHEAST MISSOURI...

CITY           SKY/WX    TMP DP  RH WIND       PRES   REMARKS
CAPE GIRARDEAU MOCLDY    33  31  92 NE5       30.27F WCI  29
6HR MIN TEMP:  33; 6HR MAX TEMP:  42;

FARMINGTON     CLOUDY    39  34  81 SE3       30.25S
6HR MIN TEMP:  39; 6HR MAX TEMP:  39;

POPLAR BLUFF   CLOUDY    41  34  76 CALM      30.25F
6HR MIN TEMP:  41; 6HR MAX TEMP:  42;

WEST PLAINS    CLOUDY    40  35  83 S7        30.21F
6HR MIN TEMP:  40; 6HR MAX TEMP:  41;


$$


USA.gov is the U.S. government's official web portal to all federal, state and local government web resources and services.